Time,TemperatureF,DewpointF,PressureIn,WindDirection,WindDirectionDegrees,WindSpeedMPH,WindSpeedGustMPH,Humidity,HourlyPrecipIn,Conditions,Clouds,dailyrainin,SoftwareType,DateUTC
2013-09-03 00:02:00,73.7,67.5,29.90,SSW,197,3.0,5.0,81,0.00,,SKC,0.00,VWS V14.01,2013-09-03 05:02:00,
2013-09-03 00:07:00,73.5,67.3,29.90,SSW,192,4.0,4.0,81,0.00,,SKC,0.00,VWS V14.01,2013-09-03 05:07:00,
2013-09-03 00:12:00,73.3,67.1,29.90,SSW,196,6.0,6.0,81,0.00,,SKC,0.00,VWS V14.01,2013-09-03 05:12:00,
2013-09-03 00:17:00,73.3,67.1,29.90,SSW,200,1.0,2.0,81,0.00,,SKC,0.00,VWS V14.01,2013-09-03 05:17:00,
2013-09-03 00:22:00,73.1,66.9,29.90,SSW,199,1.0,2.0,81,0.00,,SKC,0.00,VWS V14.01,2013-09-03 05:22:00,
2013-09-03 00:27:00,73.0,66.8,29.90,SSW,200,1.0,2.0,81,0.00,,SKC,0.00,VWS V14.01,2013-09-03 05:27:00,
2013-09-03 00:32:00,72.9,66.7,29.89,SSW,199,0.0,0.0,81,0.00,,SKC,0.00,VWS V14.01,2013-09-03 05:32:00,
2013-09-03 00:37:00,72.8,66.6,29.89,SW,220,2.0,4.0,81,0.00,,SKC,0.00,VWS V14.01,2013-09-03 05:37:00,
2013-09-03 00:42:00,72.7,66.5,29.89,SW,223,2.0,5.0,81,0.00,,SKC,0.00,VWS V14.01,2013-09-03 05:42:00,
2013-09-03 00:47:00,72.6,66.8,29.89,WSW,246,1.0,4.0,82,0.00,,SKC,0.00,VWS V14.01,2013-09-03 05:47:00,
2013-09-03 00:52:00,72.5,66.7,29.88,WSW,252,0.0,2.0,82,0.00,,SKC,0.00,VWS V14.01,2013-09-03 05:52:00,
2013-09-03 00:57:00,72.5,66.7,29.88,WSW,248,0.0,0.0,82,0.00,,SKC,0.00,VWS V14.01,2013-09-03 05:57:00,
2013-09-03 01:02:00,72.5,66.7,29.88,WSW,248,0.0,0.0,82,0.00,,SKC,0.00,VWS V14.01,2013-09-03 06:02:00,
2013-09-03 01:07:00,72.4,66.2,29.88,WSW,248,1.0,2.0,81,0.00,,SKC,0.00,VWS V14.01,2013-09-03 06:07:00,
2013-09-03 01:12:00,72.4,66.2,29.88,WSW,248,0.0,1.0,81,0.00,,SKC,0.00,VWS V14.01,2013-09-03 06:12:00,
2013-09-03 01:17:00,72.4,66.2,29.88,WSW,248,0.0,1.0,81,0.00,,SKC,0.00,VWS V14.01,2013-09-03 06:17:00,
2013-09-03 01:22:00,72.5,66.3,29.88,WSW,248,0.0,0.0,81,0.00,,SKC,0.00,VWS V14.01,2013-09-03 06:22:00,
2013-09-03 01:26:00,72.5,66.3,29.88,WSW,248,0.0,0.0,81,0.00,,SKC,0.00,VWS V14.01,2013-09-03 06:26:00,
2013-09-03 01:31:00,72.4,66.2,29.88,WSW,248,0.0,0.0,81,0.00,,SKC,0.00,VWS V14.01,2013-09-03 06:31:00,
2013-09-03 01:36:00,72.2,66.1,29.88,WSW,248,0.0,0.0,81,0.00,,SKC,0.00,VWS V14.01,2013-09-03 06:36:00,
2013-09-03 01:41:00,72.2,66.1,29.88,WSW,248,0.0,0.0,81,0.00,,SKC,0.00,VWS V14.01,2013-09-03 06:41:00,
2013-09-03 01:46:00,72.0,65.9,29.88,WSW,248,0.0,0.0,81,0.00,,SKC,0.00,VWS V14.01,2013-09-03 06:46:00,
2013-09-03 01:51:00,72.0,65.9,29.88,WSW,248,1.0,2.0,81,0.00,,SKC,0.00,VWS V14.01,2013-09-03 06:51:00,
2013-09-03 01:56:00,72.0,65.9,29.88,WSW,248,0.0,0.0,81,0.00,,SKC,0.00,VWS V14.01,2013-09-03 06:56:00,
2013-09-03 02:01:00,71.9,65.8,29.88,WSW,248,0.0,0.0,81,0.00,,SKC,0.00,VWS V14.01,2013-09-03 07:01:00,
2013-09-03 02:06:00,71.7,65.6,29.88,WSW,248,0.0,1.0,81,0.00,,SKC,0.00,VWS V14.01,2013-09-03 07:06:00,
2013-09-03 02:11:00,71.7,65.6,29.88,WSW,248,0.0,0.0,81,0.00,,SKC,0.00,VWS V14.01,2013-09-03 07:11:00,
2013-09-03 02:16:00,71.7,65.6,29.87,WSW,248,0.0,1.0,81,0.00,,SKC,0.00,VWS V14.01,2013-09-03 07:16:00,
2013-09-03 02:21:00,71.6,65.5,29.88,WSW,248,0.0,1.0,81,0.00,,SKC,0.00,VWS V14.01,2013-09-03 07:21:00,
2013-09-03 02:26:00,71.6,65.8,29.87,WSW,248,0.0,1.0,82,0.00,,SKC,0.00,VWS V14.01,2013-09-03 07:26:00,
2013-09-03 02:31:00,71.6,65.8,29.87,WSW,248,0.0,0.0,82,0.00,,SKC,0.00,VWS V14.01,2013-09-03 07:31:00,
2013-09-03 02:36:00,71.5,65.7,29.88,WSW,248,0.0,0.0,82,0.00,,SKC,0.00,VWS V14.01,2013-09-03 07:36:00,
2013-09-03 02:41:00,71.3,65.5,29.87,WSW,248,0.0,0.0,82,0.00,,SKC,0.00,VWS V14.01,2013-09-03 07:41:00,
2013-09-03 02:46:00,71.3,65.5,29.87,WSW,248,0.0,0.0,82,0.00,,SKC,0.00,VWS V14.01,2013-09-03 07:46:00,
2013-09-03 02:51:00,71.3,65.5,29.87,WSW,248,0.0,0.0,82,0.00,,SKC,0.00,VWS V14.01,2013-09-03 07:51:00,
2013-09-03 02:56:00,71.3,65.5,29.87,WSW,248,0.0,0.0,82,0.00,,SKC,0.00,VWS V14.01,2013-09-03 07:56:00,
2013-09-03 03:01:00,71.4,65.6,29.88,WSW,248,0.0,0.0,82,0.00,,SKC,0.00,VWS V14.01,2013-09-03 08:01:00,
2013-09-03 03:06:00,71.3,65.5,29.88,WSW,248,0.0,0.0,82,0.00,,SKC,0.00,VWS V14.01,2013-09-03 08:06:00,
2013-09-03 03:11:00,71.3,65.5,29.88,WSW,248,0.0,0.0,82,0.00,,SKC,0.00,VWS V14.01,2013-09-03 08:11:00,
2013-09-03 03:16:00,71.3,65.5,29.87,WSW,248,0.0,0.0,82,0.00,,SKC,0.00,VWS V14.01,2013-09-03 08:16:00,
2013-09-03 03:21:00,71.2,65.4,29.87,WSW,248,0.0,0.0,82,0.00,,SKC,0.00,VWS V14.01,2013-09-03 08:21:00,
2013-09-03 03:26:00,71.0,65.2,29.87,WSW,248,0.0,0.0,82,0.00,,SKC,0.00,VWS V14.01,2013-09-03 08:26:00,
2013-09-03 03:31:00,70.7,64.9,29.87,WSW,248,0.0,0.0,82,0.00,,SKC,0.00,VWS V14.01,2013-09-03 08:31:00,
2013-09-03 03:36:00,70.4,64.7,29.87,WSW,248,0.0,0.0,82,0.00,,SKC,0.00,VWS V14.01,2013-09-03 08:36:00,
2013-09-03 03:41:00,70.4,65.0,29.87,WSW,248,0.0,0.0,83,0.00,,SKC,0.00,VWS V14.01,2013-09-03 08:41:00,
2013-09-03 03:46:00,70.3,64.9,29.87,WSW,248,0.0,0.0,83,0.00,,SKC,0.00,VWS V14.01,2013-09-03 08:46:00,
2013-09-03 03:51:00,70.2,65.1,29.87,WSW,248,0.0,0.0,84,0.00,,SKC,0.00,VWS V14.01,2013-09-03 08:51:00,
2013-09-03 03:56:00,70.2,65.1,29.87,WSW,248,0.0,0.0,84,0.00,,SKC,0.00,VWS V14.01,2013-09-03 08:56:00,
2013-09-03 04:01:00,70.1,65.1,29.87,WSW,248,0.0,1.0,84,0.00,,SKC,0.00,VWS V14.01,2013-09-03 09:01:00,
2013-09-03 04:06:00,70.1,65.1,29.87,WSW,248,0.0,0.0,84,0.00,,SKC,0.00,VWS V14.01,2013-09-03 09:06:00,
2013-09-03 04:11:00,70.1,65.1,29.87,WSW,248,0.0,0.0,84,0.00,,SKC,0.00,VWS V14.01,2013-09-03 09:11:00,
2013-09-03 04:16:00,70.2,65.1,29.87,WSW,248,0.0,0.0,84,0.00,,SKC,0.00,VWS V14.01,2013-09-03 09:16:00,
2013-09-03 04:21:00,70.2,65.1,29.87,WSW,248,0.0,0.0,84,0.00,,SKC,0.00,VWS V14.01,2013-09-03 09:21:00,
2013-09-03 04:26:00,70.2,65.1,29.87,WSW,248,0.0,0.0,84,0.00,,SKC,0.00,VWS V14.01,2013-09-03 09:26:00,
2013-09-03 04:31:00,70.2,65.1,29.87,WSW,248,0.0,0.0,84,0.00,,SKC,0.00,VWS V14.01,2013-09-03 09:31:00,
2013-09-03 04:36:00,70.3,65.2,29.87,WSW,248,0.0,0.0,84,0.00,,SKC,0.00,VWS V14.01,2013-09-03 09:36:00,
2013-09-03 04:41:00,70.5,65.4,29.87,WSW,248,0.0,0.0,84,0.00,,SKC,0.00,VWS V14.01,2013-09-03 09:41:00,
2013-09-03 04:46:00,70.6,65.5,29.87,WSW,248,0.0,0.0,84,0.00,,SKC,0.00,VWS V14.01,2013-09-03 09:46:00,
2013-09-03 04:51:00,70.7,65.6,29.87,WSW,248,0.0,0.0,84,0.00,,SKC,0.00,VWS V14.01,2013-09-03 09:51:00,
2013-09-03 04:56:00,70.7,65.6,29.87,WSW,248,0.0,0.0,84,0.00,,SKC,0.00,VWS V14.01,2013-09-03 09:56:00,
2013-09-03 05:01:00,70.8,65.4,29.87,WSW,248,0.0,0.0,83,0.00,,SKC,0.00,VWS V14.01,2013-09-03 10:01:00,
2013-09-03 05:06:00,70.7,65.3,29.87,WSW,248,0.0,0.0,83,0.00,,SKC,0.00,VWS V14.01,2013-09-03 10:06:00,
2013-09-03 05:11:00,70.6,65.2,29.87,WSW,248,0.0,0.0,83,0.00,,SKC,0.00,VWS V14.01,2013-09-03 10:11:00,
2013-09-03 05:16:00,70.4,65.0,29.87,WSW,248,0.0,0.0,83,0.00,,SKC,0.00,VWS V14.01,2013-09-03 10:16:00,
2013-09-03 05:21:00,70.3,64.9,29.87,WSW,248,0.0,0.0,83,0.00,,SKC,0.00,VWS V14.01,2013-09-03 10:21:00,
2013-09-03 05:26:00,70.1,64.7,29.86,WSW,248,0.0,0.0,83,0.00,,SKC,0.00,VWS V14.01,2013-09-03 10:26:00,
2013-09-03 05:31:00,69.9,64.8,29.86,WSW,248,0.0,0.0,84,0.00,,SKC,0.00,VWS V14.01,2013-09-03 10:31:00,
2013-09-03 05:36:00,69.7,64.7,29.87,WSW,248,0.0,0.0,84,0.00,,SKC,0.00,VWS V14.01,2013-09-03 10:36:00,
2013-09-03 05:41:00,69.6,64.6,29.87,WSW,248,0.0,0.0,84,0.00,,SKC,0.00,VWS V14.01,2013-09-03 10:41:00,
2013-09-03 05:46:00,69.4,64.7,29.87,WSW,248,0.0,0.0,85,0.00,,SKC,0.00,VWS V14.01,2013-09-03 10:46:00,
2013-09-03 05:51:00,69.0,64.3,29.87,WSW,248,0.0,0.0,85,0.00,,SKC,0.00,VWS V14.01,2013-09-03 10:51:00,
2013-09-03 05:56:00,68.9,64.2,29.88,WSW,248,0.0,0.0,85,0.00,,SKC,0.00,VWS V14.01,2013-09-03 10:56:00,
2013-09-03 06:01:00,68.9,64.6,29.88,WSW,248,0.0,0.0,86,0.00,,SKC,0.00,VWS V14.01,2013-09-03 11:01:00,
2013-09-03 06:06:00,68.8,64.4,29.88,WSW,248,0.0,0.0,86,0.00,,SKC,0.00,VWS V14.01,2013-09-03 11:06:00,
2013-09-03 06:11:00,68.6,64.2,29.88,WSW,248,0.0,0.0,86,0.00,,SKC,0.00,VWS V14.01,2013-09-03 11:11:00,
2013-09-03 06:16:00,68.5,64.2,29.88,WSW,248,0.0,0.0,86,0.00,,SKC,0.00,VWS V14.01,2013-09-03 11:16:00,
2013-09-03 06:21:00,68.4,64.1,29.88,WSW,248,0.0,0.0,86,0.00,,SKC,0.00,VWS V14.01,2013-09-03 11:21:00,
2013-09-03 06:26:00,68.2,63.9,29.89,WSW,248,0.0,0.0,86,0.00,,SKC,0.00,VWS V14.01,2013-09-03 11:26:00,
2013-09-03 06:31:00,68.0,64.0,29.89,WSW,248,0.0,0.0,87,0.00,,SKC,0.00,VWS V14.01,2013-09-03 11:31:00,
2013-09-03 06:36:00,68.0,64.0,29.89,WSW,248,0.0,0.0,87,0.00,,SKC,0.00,VWS V14.01,2013-09-03 11:36:00,
2013-09-03 06:41:00,67.9,63.9,29.89,WSW,248,0.0,0.0,87,0.00,,SKC,0.00,VWS V14.01,2013-09-03 11:41:00,
2013-09-03 06:46:00,68.0,64.0,29.89,WSW,248,0.0,0.0,87,0.00,,SKC,0.00,VWS V14.01,2013-09-03 11:46:00,
2013-09-03 06:51:00,68.0,64.0,29.89,WSW,248,0.0,0.0,87,0.00,,SKC,0.00,VWS V14.01,2013-09-03 11:51:00,
2013-09-03 06:56:00,67.9,63.9,29.89,WSW,248,0.0,0.0,87,0.00,,SKC,0.00,VWS V14.01,2013-09-03 11:56:00,
2013-09-03 07:01:00,67.6,63.6,29.89,WSW,248,0.0,0.0,87,0.00,,SKC,0.00,VWS V14.01,2013-09-03 12:01:00,
2013-09-03 07:06:00,67.5,63.5,29.89,WSW,248,0.0,0.0,87,0.00,,SKC,0.00,VWS V14.01,2013-09-03 12:06:00,
2013-09-03 07:11:00,67.3,63.3,29.90,WSW,248,0.0,0.0,87,0.00,,SKC,0.00,VWS V14.01,2013-09-03 12:11:00,
2013-09-03 07:16:00,67.3,63.6,29.90,WSW,248,0.0,1.0,88,0.00,,SKC,0.00,VWS V14.01,2013-09-03 12:16:00,
2013-09-03 07:21:00,67.4,63.7,29.90,WSW,248,0.0,0.0,88,0.00,,SKC,0.00,VWS V14.01,2013-09-03 12:21:00,
2013-09-03 07:26:00,67.4,63.7,29.90,WSW,248,0.0,0.0,88,0.00,,SKC,0.00,VWS V14.01,2013-09-03 12:26:00,
2013-09-03 07:31:00,67.6,63.9,29.91,WSW,248,0.0,0.0,88,0.00,,SKC,0.00,VWS V14.01,2013-09-03 12:31:00,
2013-09-03 07:36:00,67.7,64.0,29.91,WSW,248,0.0,1.0,88,0.00,,SKC,0.00,VWS V14.01,2013-09-03 12:36:00,
2013-09-03 07:41:00,67.9,64.2,29.91,WSW,248,0.0,1.0,88,0.00,,SKC,0.00,VWS V14.01,2013-09-03 12:41:00,
2013-09-03 07:46:00,67.9,64.2,29.91,WSW,248,0.0,1.0,88,0.00,,SKC,0.00,VWS V14.01,2013-09-03 12:46:00,
2013-09-03 07:51:00,68.1,64.4,29.91,WSW,248,0.0,0.0,88,0.00,,SKC,0.00,VWS V14.01,2013-09-03 12:51:00,
2013-09-03 07:56:00,68.4,64.7,29.91,WSW,248,0.0,0.0,88,0.00,,SKC,0.00,VWS V14.01,2013-09-03 12:56:00,
2013-09-03 08:01:00,68.6,64.9,29.91,WSW,248,0.0,0.0,88,0.00,,SKC,0.00,VWS V14.01,2013-09-03 13:01:00,
2013-09-03 08:06:00,69.0,65.3,29.91,WSW,248,0.0,0.0,88,0.00,,SKC,0.00,VWS V14.01,2013-09-03 13:06:00,
2013-09-03 08:11:00,69.5,65.8,29.91,WSW,248,0.0,0.0,88,0.00,,SKC,0.00,VWS V14.01,2013-09-03 13:11:00,
2013-09-03 08:16:00,69.9,66.2,29.91,WSW,248,0.0,0.0,88,0.00,,SKC,0.00,VWS V14.01,2013-09-03 13:16:00,
2013-09-03 08:21:00,70.4,66.7,29.91,WSW,248,0.0,0.0,88,0.00,,SKC,0.00,VWS V14.01,2013-09-03 13:21:00,
2013-09-03 08:26:00,70.9,66.8,29.92,WSW,248,0.0,1.0,87,0.00,,SKC,0.00,VWS V14.01,2013-09-03 13:26:00,
2013-09-03 08:31:00,71.3,66.9,29.91,WSW,250,0.0,0.0,86,0.00,,SKC,0.00,VWS V14.01,2013-09-03 13:31:00,
2013-09-03 08:36:00,71.9,67.2,29.92,WSW,249,0.0,0.0,85,0.00,,SKC,0.00,VWS V14.01,2013-09-03 13:36:00,
2013-09-03 08:41:00,72.5,67.7,29.92,WSW,249,0.0,0.0,85,0.00,,SKC,0.00,VWS V14.01,2013-09-03 13:41:00,
2013-09-03 08:46:00,73.1,67.6,29.92,WSW,250,0.0,0.0,83,0.00,,SKC,0.00,VWS V14.01,2013-09-03 13:46:00,
2013-09-03 08:51:00,73.9,67.7,29.92,WSW,250,0.0,1.0,81,0.00,,SKC,0.00,VWS V14.01,2013-09-03 13:51:00,
2013-09-03 08:56:00,74.7,67.8,29.92,WSW,250,0.0,2.0,79,0.00,,SKC,0.00,VWS V14.01,2013-09-03 13:56:00,
2013-09-03 09:01:00,75.7,68.0,29.93,WSW,249,2.0,2.0,77,0.00,,SKC,0.00,VWS V14.01,2013-09-03 14:01:00,
2013-09-03 09:07:00,76.9,68.0,29.93,WSW,248,0.0,1.0,74,0.00,,SKC,0.00,VWS V14.01,2013-09-03 14:07:00,
2013-09-03 09:12:00,77.8,67.2,29.93,WSW,246,1.0,3.0,70,0.00,,SKC,0.00,VWS V14.01,2013-09-03 14:12:00,
2013-09-03 09:17:00,78.6,67.2,29.93,WSW,246,1.0,2.0,68,0.00,,SKC,0.00,VWS V14.01,2013-09-03 14:17:00,
2013-09-03 09:22:00,79.2,67.3,29.93,WSW,246,0.0,3.0,67,0.00,,SKC,0.00,VWS V14.01,2013-09-03 14:22:00,
2013-09-03 09:27:00,80.0,67.2,29.93,WSW,242,2.0,3.0,65,0.00,,SKC,0.00,VWS V14.01,2013-09-03 14:27:00,
2013-09-03 09:32:00,80.0,66.7,29.93,WSW,252,0.0,1.0,64,0.00,,SKC,0.00,VWS V14.01,2013-09-03 14:32:00,
2013-09-03 09:37:00,80.2,66.5,29.93,WSW,251,2.0,3.0,63,0.00,,SKC,0.00,VWS V14.01,2013-09-03 14:37:00,
2013-09-03 09:42:00,80.5,67.2,29.94,WSW,251,2.0,2.0,64,0.00,,SKC,0.00,VWS V14.01,2013-09-03 14:42:00,
2013-09-03 09:47:00,80.7,66.5,29.94,WSW,250,0.0,2.0,62,0.00,,SKC,0.00,VWS V14.01,2013-09-03 14:47:00,
2013-09-03 09:52:00,80.7,66.5,29.94,WSW,250,0.0,2.0,62,0.00,,SKC,0.00,VWS V14.01,2013-09-03 14:52:00,
2013-09-03 09:57:00,81.0,66.8,29.94,WSW,252,0.0,3.0,62,0.00,,SKC,0.00,VWS V14.01,2013-09-03 14:57:00,
2013-09-03 10:02:00,81.4,66.7,29.94,WSW,252,0.0,0.0,61,0.00,,SKC,0.00,VWS V14.01,2013-09-03 15:02:00,
2013-09-03 10:07:00,82.2,66.9,29.94,SSE,165,2.0,3.0,60,0.00,,SKC,0.00,VWS V14.01,2013-09-03 15:07:00,
2013-09-03 10:12:00,82.9,67.1,29.94,South,177,1.0,1.0,59,0.00,,SKC,0.00,VWS V14.01,2013-09-03 15:12:00,
2013-09-03 10:17:00,83.6,66.8,29.94,South,176,0.0,1.0,57,0.00,,SKC,0.00,VWS V14.01,2013-09-03 15:17:00,
2013-09-03 10:22:00,83.9,66.5,29.94,South,176,0.0,2.0,56,0.00,,SKC,0.00,VWS V14.01,2013-09-03 15:22:00,
2013-09-03 10:27:00,84.3,66.9,29.95,South,177,0.0,0.0,56,0.00,,SKC,0.00,VWS V14.01,2013-09-03 15:27:00,
2013-09-03 10:32:00,84.8,66.3,29.95,NNW,338,2.0,3.0,54,0.00,,SKC,0.00,VWS V14.01,2013-09-03 15:32:00,
2013-09-03 10:37:00,85.1,66.1,29.95,East,87,0.0,3.0,53,0.00,,SKC,0.00,VWS V14.01,2013-09-03 15:37:00,
2013-09-03 10:42:00,85.5,65.9,29.95,SSW,213,2.0,3.0,52,0.00,,SKC,0.00,VWS V14.01,2013-09-03 15:42:00,
2013-09-03 10:47:00,85.6,66.0,29.95,SSW,213,1.0,1.0,52,0.00,,SKC,0.00,VWS V14.01,2013-09-03 15:47:00,
2013-09-03 10:52:00,86.1,66.4,29.95,West,270,0.0,1.0,52,0.00,,SKC,0.00,VWS V14.01,2013-09-03 15:52:00,
2013-09-03 10:57:00,86.6,65.8,29.95,South,187,1.0,1.0,50,0.00,,SKC,0.00,VWS V14.01,2013-09-03 15:57:00,
2013-09-03 11:02:00,87.1,65.6,29.95,ESE,118,1.0,2.0,49,0.00,,SKC,0.00,VWS V14.01,2013-09-03 16:02:00,
2013-09-03 11:07:00,87.2,65.1,29.95,NW,317,0.0,1.0,48,0.00,,SKC,0.00,VWS V14.01,2013-09-03 16:07:00,
2013-09-03 11:12:00,87.5,66.0,29.95,NNW,343,0.0,4.0,49,0.00,,SKC,0.00,VWS V14.01,2013-09-03 16:12:00,
2013-09-03 11:17:00,87.5,64.8,29.95,NE,36,2.0,4.0,47,0.00,,SKC,0.00,VWS V14.01,2013-09-03 16:17:00,
2013-09-03 11:22:00,87.3,64.6,29.95,NE,45,0.0,4.0,47,0.00,,SKC,0.00,VWS V14.01,2013-09-03 16:22:00,
2013-09-03 11:27:00,87.1,64.4,29.95,NNE,22,0.0,3.0,47,0.00,,SKC,0.00,VWS V14.01,2013-09-03 16:27:00,
2013-09-03 11:32:00,87.7,66.2,29.95,NW,318,0.0,5.0,49,0.00,,SKC,0.00,VWS V14.01,2013-09-03 16:32:00,
2013-09-03 11:37:00,88.5,65.7,29.95,NNE,19,2.0,4.0,47,0.00,,SKC,0.00,VWS V14.01,2013-09-03 16:37:00,
2013-09-03 11:42:00,88.7,64.7,29.95,NNE,30,5.0,7.0,45,0.00,,SKC,0.00,VWS V14.01,2013-09-03 16:42:00,
2013-09-03 11:47:00,88.9,64.8,29.95,East,86,3.0,5.0,45,0.00,,SKC,0.00,VWS V14.01,2013-09-03 16:47:00,
2013-09-03 11:52:00,89.5,64.7,29.94,SE,142,0.0,3.0,44,0.00,,SKC,0.00,VWS V14.01,2013-09-03 16:52:00,
2013-09-03 11:57:00,90.2,64.0,29.94,East,87,5.0,5.0,42,0.00,,SKC,0.00,VWS V14.01,2013-09-03 16:57:00,
2013-09-03 12:02:00,90.1,64.6,29.94,WNW,298,0.0,4.0,43,0.00,,SKC,0.00,VWS V14.01,2013-09-03 17:02:00,
2013-09-03 12:07:00,90.0,64.5,29.94,ESE,111,3.0,6.0,43,0.00,,SKC,0.00,VWS V14.01,2013-09-03 17:07:00,
2013-09-03 12:12:00,90.1,63.9,29.94,ESE,113,2.0,4.0,42,0.00,,SKC,0.00,VWS V14.01,2013-09-03 17:12:00,
2013-09-03 12:17:00,90.3,62.7,29.94,SSE,163,0.0,4.0,40,0.00,,SKC,0.00,VWS V14.01,2013-09-03 17:17:00,
2013-09-03 12:22:00,90.9,64.0,29.94,ESE,105,4.0,8.0,41,0.00,,SKC,0.00,VWS V14.01,2013-09-03 17:22:00,
2013-09-03 12:27:00,91.1,64.8,29.94,SSW,211,1.0,1.0,42,0.00,,SKC,0.00,VWS V14.01,2013-09-03 17:27:00,
2013-09-03 12:32:00,90.8,63.9,29.93,SE,126,1.0,4.0,41,0.00,,SKC,0.00,VWS V14.01,2013-09-03 17:32:00,
2013-09-03 12:37:00,90.6,65.1,29.93,SE,132,0.0,3.0,43,0.00,,SKC,0.00,VWS V14.01,2013-09-03 17:37:00,
2013-09-03 12:42:00,90.4,64.2,29.93,SSE,159,0.0,4.0,42,0.00,,SKC,0.00,VWS V14.01,2013-09-03 17:42:00,
2013-09-03 12:47:00,90.0,64.5,29.93,ESE,110,5.0,6.0,43,0.00,,SKC,0.00,VWS V14.01,2013-09-03 17:47:00,
2013-09-03 12:52:00,89.7,64.9,29.93,ENE,74,1.0,4.0,44,0.00,,SKC,0.00,VWS V14.01,2013-09-03 17:52:00,
2013-09-03 12:57:00,90.1,65.3,29.93,ENE,70,3.0,7.0,44,0.00,,SKC,0.00,VWS V14.01,2013-09-03 17:57:00,
2013-09-03 13:02:00,90.4,65.5,29.93,SE,145,3.0,3.0,44,0.00,,SKC,0.00,VWS V14.01,2013-09-03 18:02:00,
2013-09-03 13:07:00,91.8,66.1,29.92,East,86,3.0,5.0,43,0.00,,SKC,0.00,VWS V14.01,2013-09-03 18:07:00,
2013-09-03 13:12:00,92.1,65.7,29.92,NE,55,2.0,6.0,42,0.00,,SKC,0.00,VWS V14.01,2013-09-03 18:12:00,
2013-09-03 13:17:00,91.0,65.4,29.92,NE,53,1.0,6.0,43,0.00,,SKC,0.00,VWS V14.01,2013-09-03 18:17:00,
2013-09-03 13:22:00,90.4,65.5,29.92,NE,37,2.0,4.0,44,0.00,,SKC,0.00,VWS V14.01,2013-09-03 18:22:00,
2013-09-03 13:26:00,91.4,65.1,29.92,SE,129,5.0,10.0,42,0.00,,SKC,0.00,VWS V14.01,2013-09-03 18:26:00,
2013-09-03 13:31:00,91.5,65.2,29.92,South,185,5.0,7.0,42,0.00,,SKC,0.00,VWS V14.01,2013-09-03 18:31:00,
2013-09-03 13:37:00,91.3,65.0,29.92,East,92,6.0,7.0,42,0.00,,SKC,0.00,VWS V14.01,2013-09-03 18:37:00,
2013-09-03 13:42:00,90.8,64.6,29.92,ESE,104,2.0,5.0,42,0.00,,SKC,0.00,VWS V14.01,2013-09-03 18:42:00,
2013-09-03 13:47:00,90.1,65.3,29.91,East,88,1.0,3.0,44,0.00,,SKC,0.00,VWS V14.01,2013-09-03 18:47:00,
2013-09-03 13:52:00,90.9,65.3,29.91,ENE,63,5.0,5.0,43,0.00,,SKC,0.00,VWS V14.01,2013-09-03 18:52:00,
2013-09-03 13:57:00,92.0,65.6,29.91,NE,56,6.0,6.0,42,0.00,,SKC,0.00,VWS V14.01,2013-09-03 18:57:00,
2013-09-03 14:02:00,92.5,66.1,29.91,NE,42,0.0,2.0,42,0.00,,SKC,0.00,VWS V14.01,2013-09-03 19:02:00,
2013-09-03 14:07:00,92.4,66.0,29.91,ENE,57,0.0,5.0,42,0.00,,SKC,0.00,VWS V14.01,2013-09-03 19:07:00,
2013-09-03 14:12:00,92.6,64.8,29.90,NE,37,2.0,3.0,40,0.00,,SKC,0.00,VWS V14.01,2013-09-03 19:12:00,
2013-09-03 14:17:00,92.1,64.3,29.90,ENE,69,2.0,4.0,40,0.00,,SKC,0.00,VWS V14.01,2013-09-03 19:17:00,
2013-09-03 14:21:00,91.5,63.8,29.90,ENE,75,5.0,5.0,40,0.00,,SKC,0.00,VWS V14.01,2013-09-03 19:21:00,
2013-09-03 14:27:00,91.2,64.2,29.90,ENE,71,5.0,8.0,41,0.00,,SKC,0.00,VWS V14.01,2013-09-03 19:27:00,
2013-09-03 14:32:00,91.1,64.1,29.89,East,84,5.0,10.0,41,0.00,,SKC,0.00,VWS V14.01,2013-09-03 19:32:00,
2013-09-03 14:37:00,90.4,64.2,29.89,NE,42,2.0,2.0,42,0.00,,SKC,0.00,VWS V14.01,2013-09-03 19:37:00,
2013-09-03 14:42:00,90.1,64.6,29.89,NE,36,1.0,2.0,43,0.00,,SKC,0.00,VWS V14.01,2013-09-03 19:42:00,
2013-09-03 14:47:00,89.9,65.1,29.89,NE,38,2.0,3.0,44,0.00,,SKC,0.00,VWS V14.01,2013-09-03 19:47:00,
2013-09-03 14:52:00,90.0,64.5,29.89,NE,37,0.0,3.0,43,0.00,,SKC,0.00,VWS V14.01,2013-09-03 19:52:00,
2013-09-03 14:56:00,90.8,63.9,29.88,NE,40,1.0,2.0,41,0.00,,SKC,0.00,VWS V14.01,2013-09-03 19:56:00,
2013-09-03 15:02:00,91.8,65.5,29.88,North,9,3.0,3.0,42,0.00,,SKC,0.00,VWS V14.01,2013-09-03 20:02:00,
2013-09-03 15:07:00,92.6,64.8,29.87,NE,53,2.0,3.0,40,0.00,,SKC,0.00,VWS V14.01,2013-09-03 20:07:00,
2013-09-03 15:12:00,93.5,63.3,29.87,SE,144,0.0,2.0,37,0.00,,SKC,0.00,VWS V14.01,2013-09-03 20:12:00,
2013-09-03 15:17:00,94.0,64.6,29.87,SE,144,0.0,1.0,38,0.00,,SKC,0.00,VWS V14.01,2013-09-03 20:17:00,
2013-09-03 15:22:00,93.9,63.7,29.87,ENE,62,6.0,9.0,37,0.00,,SKC,0.00,VWS V14.01,2013-09-03 20:22:00,
2013-09-03 15:27:00,92.7,64.1,29.86,ENE,61,4.0,5.0,39,0.00,,SKC,0.00,VWS V14.01,2013-09-03 20:27:00,
2013-09-03 15:32:00,92.0,63.5,29.86,ENE,59,7.0,7.0,39,0.00,,SKC,0.00,VWS V14.01,2013-09-03 20:32:00,
2013-09-03 15:37:00,91.3,64.3,29.86,ENE,72,0.0,5.0,41,0.00,,SKC,0.00,VWS V14.01,2013-09-03 20:37:00,
2013-09-03 15:42:00,90.6,63.0,29.86,ENE,71,6.0,6.0,40,0.00,,SKC,0.00,VWS V14.01,2013-09-03 20:42:00,
2013-09-03 15:47:00,90.2,62.6,29.86,NE,53,1.0,6.0,40,0.00,,SKC,0.00,VWS V14.01,2013-09-03 20:47:00,
2013-09-03 15:52:00,90.4,62.8,29.85,NE,34,2.0,5.0,40,0.00,,SKC,0.00,VWS V14.01,2013-09-03 20:52:00,
2013-09-03 15:57:00,90.8,63.2,29.85,East,87,5.0,5.0,40,0.00,,SKC,0.00,VWS V14.01,2013-09-03 20:57:00,
2013-09-03 16:02:00,91.7,63.2,29.85,NE,53,0.0,5.0,39,0.00,,SKC,0.00,VWS V14.01,2013-09-03 21:02:00,
2013-09-03 16:07:00,93.0,62.9,29.85,ENE,57,1.0,5.0,37,0.00,,SKC,0.00,VWS V14.01,2013-09-03 21:07:00,
2013-09-03 16:12:00,93.5,63.3,29.84,ESE,122,4.0,7.0,37,0.00,,SKC,0.00,VWS V14.01,2013-09-03 21:12:00,
2013-09-03 16:17:00,93.2,62.3,29.84,SSE,168,5.0,10.0,36,0.00,,SKC,0.00,VWS V14.01,2013-09-03 21:17:00,
2013-09-03 16:22:00,93.3,62.4,29.84,NE,37,1.0,5.0,36,0.00,,SKC,0.00,VWS V14.01,2013-09-03 21:22:00,
2013-09-03 16:27:00,93.8,63.6,29.83,SE,133,3.0,4.0,37,0.00,,SKC,0.00,VWS V14.01,2013-09-03 21:27:00,
2013-09-03 16:32:00,94.6,62.7,29.83,ESE,108,8.0,8.0,35,0.00,,SKC,0.00,VWS V14.01,2013-09-03 21:32:00,
2013-09-03 16:37:00,94.4,62.5,29.83,SE,136,5.0,7.0,35,0.00,,SKC,0.00,VWS V14.01,2013-09-03 21:37:00,
2013-09-03 16:42:00,94.3,62.5,29.83,South,175,7.0,9.0,35,0.00,,SKC,0.00,VWS V14.01,2013-09-03 21:42:00,
2013-09-03 16:47:00,93.7,61.9,29.83,South,190,3.0,6.0,35,0.00,,SKC,0.00,VWS V14.01,2013-09-03 21:47:00,
2013-09-03 16:52:00,94.0,61.4,29.83,South,184,0.0,0.0,34,0.00,,SKC,0.00,VWS V14.01,2013-09-03 21:52:00,
2013-09-03 16:57:00,94.5,61.8,29.83,South,174,6.0,10.0,34,0.00,,SKC,0.00,VWS V14.01,2013-09-03 21:57:00,
2013-09-03 17:02:00,94.6,61.1,29.83,SW,217,0.0,7.0,33,0.00,,SKC,0.00,VWS V14.01,2013-09-03 22:02:00,
2013-09-03 17:07:00,94.8,61.2,29.83,SSW,196,6.0,10.0,33,0.00,,SKC,0.00,VWS V14.01,2013-09-03 22:07:00,
2013-09-03 17:12:00,95.0,61.4,29.83,SSW,194,6.0,7.0,33,0.00,,SKC,0.00,VWS V14.01,2013-09-03 22:12:00,
2013-09-03 17:17:00,95.4,61.8,29.83,SW,227,3.0,3.0,33,0.00,,SKC,0.00,VWS V14.01,2013-09-03 22:17:00,
2013-09-03 17:22:00,95.6,61.9,29.82,South,173,6.0,10.0,33,0.00,,SKC,0.00,VWS V14.01,2013-09-03 22:22:00,
2013-09-03 17:27:00,94.8,61.2,29.82,ESE,107,3.0,6.0,33,0.00,,SKC,0.00,VWS V14.01,2013-09-03 22:27:00,
2013-09-03 17:32:00,94.4,61.7,29.82,South,191,5.0,11.0,34,0.00,,SKC,0.00,VWS V14.01,2013-09-03 22:32:00,
2013-09-03 17:37:00,94.2,62.4,29.82,SSE,159,5.0,7.0,35,0.00,,SKC,0.00,VWS V14.01,2013-09-03 22:37:00,
2013-09-03 17:42:00,94.4,61.7,29.83,South,182,3.0,5.0,34,0.00,,SKC,0.00,VWS V14.01,2013-09-03 22:42:00,
2013-09-03 17:47:00,93.7,61.9,29.83,SSW,195,3.0,10.0,35,0.00,,SKC,0.00,VWS V14.01,2013-09-03 22:47:00,
2013-09-03 17:52:00,93.2,61.5,29.83,SSE,148,3.0,4.0,35,0.00,,SKC,0.00,VWS V14.01,2013-09-03 22:52:00,
2013-09-03 17:57:00,93.0,60.5,29.82,SE,136,0.0,0.0,34,0.00,,SKC,0.00,VWS V14.01,2013-09-03 22:57:00,
2013-09-03 18:02:00,92.7,61.1,29.82,SE,132,3.0,4.0,35,0.00,,SKC,0.00,VWS V14.01,2013-09-03 23:02:00,
2013-09-03 18:07:00,92.4,60.8,29.82,South,190,2.0,4.0,35,0.00,,SKC,0.00,VWS V14.01,2013-09-03 23:07:00,
2013-09-03 18:12:00,92.3,60.7,29.82,South,186,0.0,0.0,35,0.00,,SKC,0.00,VWS V14.01,2013-09-03 23:12:00,
2013-09-03 18:17:00,92.3,61.5,29.82,ESE,102,1.0,2.0,36,0.00,,SKC,0.00,VWS V14.01,2013-09-03 23:17:00,
2013-09-03 18:27:00,92.8,61.2,29.82,NE,49,0.0,2.0,35,0.00,,SKC,0.00,VWS V14.01,2013-09-03 23:27:00,
2013-09-03 18:32:00,92.7,61.1,29.83,NE,49,0.0,1.0,35,0.00,,SKC,0.00,VWS V14.01,2013-09-03 23:32:00,
2013-09-03 18:37:00,92.5,61.7,29.82,NE,48,0.0,0.0,36,0.00,,SKC,0.00,VWS V14.01,2013-09-03 23:37:00,
2013-09-03 18:42:00,92.2,62.2,29.82,NE,48,0.0,1.0,37,0.00,,SKC,0.00,VWS V14.01,2013-09-03 23:42:00,
2013-09-03 18:47:00,91.8,62.6,29.82,NNE,17,4.0,4.0,38,0.00,,SKC,0.00,VWS V14.01,2013-09-03 23:47:00,
2013-09-03 18:52:00,91.5,63.8,29.83,NNW,335,6.0,6.0,40,0.00,,SKC,0.00,VWS V14.01,2013-09-03 23:52:00,
2013-09-03 18:57:00,90.6,65.1,29.83,NNW,327,4.0,8.0,43,0.00,,SKC,0.00,VWS V14.01,2013-09-03 23:57:00,
2013-09-03 19:02:00,89.7,64.9,29.83,NNW,346,5.0,10.0,44,0.00,,SKC,0.00,VWS V14.01,2013-09-04 00:02:00,
2013-09-03 19:07:00,89.2,65.1,29.83,North,355,3.0,3.0,45,0.00,,SKC,0.00,VWS V14.01,2013-09-04 00:07:00,
2013-09-03 19:12:00,89.0,64.9,29.83,NNE,21,5.0,9.0,45,0.00,,SKC,0.00,VWS V14.01,2013-09-04 00:12:00,
2013-09-03 19:17:00,88.9,64.2,29.83,NNE,18,2.0,4.0,44,0.00,,SKC,0.00,VWS V14.01,2013-09-04 00:17:00,
2013-09-03 19:22:00,88.8,64.1,29.83,North,11,13.0,13.0,44,0.00,,SKC,0.00,VWS V14.01,2013-09-04 00:22:00,
2013-09-03 19:27:00,88.1,64.7,29.84,North,5,7.0,7.0,46,0.00,,SKC,0.00,VWS V14.01,2013-09-04 00:27:00,
2013-09-03 19:32:00,87.1,65.6,29.83,North,10,7.0,12.0,49,0.00,,SKC,0.00,VWS V14.01,2013-09-04 00:32:00,
2013-09-03 19:37:00,85.8,65.6,29.84,NNE,22,5.0,9.0,51,0.00,,SKC,0.00,VWS V14.01,2013-09-04 00:37:00,
2013-09-03 19:42:00,84.9,65.9,29.84,North,5,5.0,9.0,53,0.00,,SKC,0.00,VWS V14.01,2013-09-04 00:42:00,
2013-09-03 19:47:00,84.2,65.8,29.83,NNW,346,4.0,6.0,54,0.00,,SKC,0.00,VWS V14.01,2013-09-04 00:47:00,
2013-09-03 19:52:00,83.8,65.4,29.84,NNE,30,1.0,3.0,54,0.00,,SKC,0.00,VWS V14.01,2013-09-04 00:52:00,
2013-09-03 19:57:00,83.6,65.2,29.84,South,171,0.0,2.0,54,0.00,,SKC,0.00,VWS V14.01,2013-09-04 00:57:00,
2013-09-03 20:02:00,83.4,65.6,29.84,South,171,0.0,0.0,55,0.00,,SKC,0.00,VWS V14.01,2013-09-04 01:02:00,
2013-09-03 20:07:00,83.3,64.9,29.84,South,171,0.0,0.0,54,0.00,,SKC,0.00,VWS V14.01,2013-09-04 01:07:00,
2013-09-03 20:12:00,83.5,64.6,29.84,South,171,0.0,1.0,53,0.00,,SKC,0.00,VWS V14.01,2013-09-04 01:12:00,
2013-09-03 20:17:00,83.5,65.1,29.84,South,171,0.0,0.0,54,0.00,,SKC,0.00,VWS V14.01,2013-09-04 01:17:00,
2013-09-03 20:22:00,83.2,65.4,29.84,South,171,0.0,0.0,55,0.00,,SKC,0.00,VWS V14.01,2013-09-04 01:22:00,
2013-09-03 20:27:00,83.0,65.2,29.84,South,171,0.0,0.0,55,0.00,,SKC,0.00,VWS V14.01,2013-09-04 01:27:00,
2013-09-03 20:32:00,82.7,64.9,29.85,South,169,2.0,2.0,55,0.00,,SKC,0.00,VWS V14.01,2013-09-04 01:32:00,
2013-09-03 20:37:00,82.5,64.7,29.85,NNE,18,1.0,1.0,55,0.00,,SKC,0.00,VWS V14.01,2013-09-04 01:37:00,
2013-09-03 20:42:00,82.4,65.1,29.85,NNE,17,0.0,0.0,56,0.00,,SKC,0.00,VWS V14.01,2013-09-04 01:42:00,
2013-09-03 20:47:00,82.1,64.9,29.85,NNE,17,1.0,1.0,56,0.00,,SKC,0.00,VWS V14.01,2013-09-04 01:47:00,
2013-09-03 20:52:00,81.8,65.1,29.85,NNE,17,0.0,0.0,57,0.00,,SKC,0.00,VWS V14.01,2013-09-04 01:52:00,
2013-09-03 20:57:00,81.6,64.9,29.86,NNE,17,0.0,0.0,57,0.00,,SKC,0.00,VWS V14.01,2013-09-04 01:57:00,
2013-09-03 21:02:00,81.4,64.7,29.86,NNE,18,0.0,1.0,57,0.00,,SKC,0.00,VWS V14.01,2013-09-04 02:02:00,
2013-09-03 21:07:00,81.4,64.7,29.86,NNE,18,1.0,1.0,57,0.00,,SKC,0.00,VWS V14.01,2013-09-04 02:07:00,
2013-09-03 21:12:00,81.3,64.6,29.86,NNE,21,0.0,0.0,57,0.00,,SKC,0.00,VWS V14.01,2013-09-04 02:12:00,
2013-09-03 21:17:00,81.3,64.6,29.86,NNE,21,0.0,1.0,57,0.00,,SKC,0.00,VWS V14.01,2013-09-04 02:17:00,
2013-09-03 21:22:00,81.2,64.5,29.86,NNE,21,1.0,1.0,57,0.00,,SKC,0.00,VWS V14.01,2013-09-04 02:22:00,
2013-09-03 21:27:00,81.1,64.9,29.86,NNE,21,0.0,0.0,58,0.00,,SKC,0.00,VWS V14.01,2013-09-04 02:27:00,
2013-09-03 21:32:00,80.9,64.8,29.86,NNE,21,0.0,0.0,58,0.00,,SKC,0.00,VWS V14.01,2013-09-04 02:32:00,
2013-09-03 21:37:00,80.5,64.9,29.86,NNE,21,0.0,0.0,59,0.00,,SKC,0.00,VWS V14.01,2013-09-04 02:37:00,
2013-09-03 21:42:00,80.2,64.6,29.86,NNE,21,0.0,0.0,59,0.00,,SKC,0.00,VWS V14.01,2013-09-04 02:42:00,
2013-09-03 21:47:00,79.8,64.7,29.86,NNE,21,0.0,0.0,60,0.00,,SKC,0.00,VWS V14.01,2013-09-04 02:47:00,
2013-09-03 21:52:00,79.6,65.0,29.87,NNE,21,0.0,1.0,61,0.00,,SKC,0.00,VWS V14.01,2013-09-04 02:52:00,
2013-09-03 21:57:00,79.4,64.8,29.87,NNE,21,0.0,1.0,61,0.00,,SKC,0.00,VWS V14.01,2013-09-04 02:57:00,
2013-09-03 22:02:00,79.3,64.7,29.87,NNE,22,1.0,2.0,61,0.00,,SKC,0.00,VWS V14.01,2013-09-04 03:02:00,
2013-09-03 22:07:00,79.3,64.7,29.87,NNE,21,0.0,1.0,61,0.00,,SKC,0.00,VWS V14.01,2013-09-04 03:07:00,
2013-09-03 22:12:00,79.4,64.3,29.87,NNE,22,0.0,0.0,60,0.00,,SKC,0.00,VWS V14.01,2013-09-04 03:12:00,
2013-09-03 22:17:00,79.2,64.6,29.87,NNE,21,0.0,0.0,61,0.00,,SKC,0.00,VWS V14.01,2013-09-04 03:17:00,
2013-09-03 22:22:00,78.5,64.9,29.87,NNE,21,0.0,0.0,63,0.00,,SKC,0.00,VWS V14.01,2013-09-04 03:22:00,
2013-09-03 22:27:00,78.0,64.8,29.87,NNE,22,0.0,0.0,64,0.00,,SKC,0.00,VWS V14.01,2013-09-04 03:27:00,
2013-09-03 22:32:00,77.7,64.6,29.87,NNE,22,0.0,0.0,64,0.00,,SKC,0.00,VWS V14.01,2013-09-04 03:32:00,
2013-09-03 22:37:00,77.5,64.4,29.87,NNE,22,0.0,0.0,64,0.00,,SKC,0.00,VWS V14.01,2013-09-04 03:37:00,
2013-09-03 22:42:00,77.5,63.9,29.88,NE,51,0.0,0.0,63,0.00,,SKC,0.00,VWS V14.01,2013-09-04 03:42:00,
2013-09-03 22:47:00,77.9,64.3,29.87,NE,52,0.0,0.0,63,0.00,,SKC,0.00,VWS V14.01,2013-09-04 03:47:00,
2013-09-03 22:52:00,78.3,64.2,29.87,NE,52,0.0,0.0,62,0.00,,SKC,0.00,VWS V14.01,2013-09-04 03:52:00,
2013-09-03 22:57:00,78.6,64.0,29.87,NE,52,0.0,0.0,61,0.00,,SKC,0.00,VWS V14.01,2013-09-04 03:57:00,
2013-09-03 23:01:00,78.7,64.1,29.87,NE,52,0.0,0.0,61,0.00,,SKC,0.00,VWS V14.01,2013-09-04 04:01:00,
2013-09-03 23:06:00,78.9,63.8,29.87,NE,52,0.0,0.0,60,0.00,,SKC,0.00,VWS V14.01,2013-09-04 04:06:00,
2013-09-03 23:11:00,79.2,64.1,29.87,NE,52,0.0,0.0,60,0.00,,SKC,0.00,VWS V14.01,2013-09-04 04:11:00,
2013-09-03 23:16:00,79.4,63.8,29.87,NE,52,0.0,0.0,59,0.00,,SKC,0.00,VWS V14.01,2013-09-04 04:16:00,
2013-09-03 23:21:00,79.5,63.9,29.87,NE,52,0.0,0.0,59,0.00,,SKC,0.00,VWS V14.01,2013-09-04 04:21:00,
2013-09-03 23:26:00,79.5,63.9,29.87,NE,52,0.0,0.0,59,0.00,,SKC,0.00,VWS V14.01,2013-09-04 04:26:00,
2013-09-03 23:31:00,79.4,63.8,29.88,NE,52,0.0,0.0,59,0.00,,SKC,0.00,VWS V14.01,2013-09-04 04:31:00,
2013-09-03 23:36:00,79.4,63.8,29.88,NE,52,0.0,0.0,59,0.00,,SKC,0.00,VWS V14.01,2013-09-04 04:36:00,
2013-09-03 23:41:00,79.3,63.7,29.88,NE,52,0.0,0.0,59,0.00,,SKC,0.00,VWS V14.01,2013-09-04 04:41:00,
2013-09-03 23:46:00,79.0,63.9,29.88,NE,52,0.0,0.0,60,0.00,,SKC,0.00,VWS V14.01,2013-09-04 04:46:00,
2013-09-03 23:51:00,78.7,63.2,29.87,NE,52,0.0,0.0,59,0.00,,SKC,0.00,VWS V14.01,2013-09-04 04:51:00,
2013-09-03 23:56:00,78.4,63.8,29.87,NE,51,0.0,0.0,61,0.00,,SKC,0.00,VWS V14.01,2013-09-04 04:56:00,